Location: ????????
(55.6517°N, 38.6740°E)
Time: 10:32:21
(UTC+00:00)

Daily predictions for brighter satellites

Satellite Brightness Start Highest point End
(mag) Time Altitude Azimuth Time Altitude Azimuth Time Altitude Azimuth
Cosmos 44 3.6 17:39:22 10° NW 17:44:10 65° NE 17:49:12 10° ESE
FALCON 9 DEB 4.0 17:44:02 10° SW 17:47:10 31° SSE 17:50:18 10° E
CZ-2C R/B 3.8 17:43:46 10° NNE 17:48:22 63° ESE 17:52:51 10° S
USA 267 4.2 17:45:33 10° ENE 17:50:40 24° SE 17:55:46 10° S
COSMOS 2428 4.4 17:46:10 10° NNW 17:50:52 25° NNE 17:55:33 10° E
NOSS 3-2 (A) 3.9 17:46:19 10° S 17:51:35 37° ESE 17:57:34 10° ENE
Cosmos 614 Rocket 4.2 17:47:49 10° SSW 17:53:01 78° WNW 17:58:17 10° NNE
OBJECT-B 2.1 17:50:10 10° S 17:53:19 41° W 17:56:28 10° NNW
Cosmos 1697 Rocket 4.3 17:49:57 10° NW 17:54:52 32° WSW 17:59:45 10° SSW
Cosmos 1833 Rocket 2.7 17:51:34 10° SSW 17:57:12 89° ESE 18:02:54 10° NE
Cosmos 1470 Rocket 4.0 17:53:48 10° SSE 17:57:58 43° E 18:02:07 10° NNE
Cosmos 2237 Rocket 4.3 17:56:38 10° NNW 18:00:42 20° NNE 18:04:45 10° ENE
NOSS 3-2 (C) 4.2 17:56:08 10° S 18:01:02 29° ESE 18:06:31 10° ENE
Meteor 1-4 Rocket 3.5 17:58:27 10° NNW 18:01:49 46° W 18:05:07 10° S
Sich 1 3.6 18:00:08 10° SSW 18:04:32 64° WNW 18:08:59 10° N
Cosmos 540 Rocket 4.0 18:00:10 10° NNW 18:05:13 49° NE 18:10:07 11° SE
SPOT 5 3.4 18:01:32 10° SE 18:05:32 38° ENE 18:09:42 10° N
Cosmos 1184 Rocket 2.8 18:03:28 10° S 18:06:44 61° E 18:10:00 10° NNE
Cosmos 1862 Rocket 3.8 18:03:17 10° NNW 18:07:46 73° W 18:12:11 10° S
Cosmos 1934 Rocket 4.1 18:01:57 10° S 18:08:19 80° E 18:14:43 10° NNE
Cosmos 2333 Rocket 3.6 18:04:31 10° NNW 18:09:40 31° NNE 18:14:47 10° E
SPOT 1/Viking Rocket 3.7 18:04:57 10° SSE 18:10:08 70° ENE 18:15:22 10° NNW
Cosmos 1437 Rocket 3.0 18:07:19 10° N 18:11:04 52° ENE 18:14:34 11° SSE
Cosmos 405 Rocket 3.2 18:08:11 10° SSE 18:11:39 38° E 18:15:11 10° NNE
SL-27 R/B 4.0 18:13:03 13° SE 18:14:40 17° E 18:16:52 10° ENE
USA 32 4.1 18:09:56 10° S 18:15:07 68° E 18:20:20 10° NNE
Landsat 7 3.8 18:10:31 10° SSE 18:15:18 86° ENE 18:20:06 10° NNW
Resurs 01 Rocket 2.5 18:12:29 10° S 18:16:47 49° W 18:21:07 10° NNW
Cosmos 1515 3.9 18:14:58 10° N 18:18:45 57° ENE 18:22:10 12° SSE
ERBS 2.6 18:17:04 10° W 18:20:23 67° N 18:23:41 10° E
Meteor 1-19 Rocket 4.2 18:14:58 10° NNW 18:20:26 77° ENE 18:25:54 10° SSE
Cosmos 676 Rocket 4.0 18:15:10 10° SSW 18:20:29 74° ESE 18:25:51 10° NNE
ERS-1 Rocket 3.2 18:16:12 11° SE 18:20:59 60° ENE 18:25:58 10° N
GP-B 3.1 18:17:07 10° N 18:21:36 88° E 18:26:03 10° S
OPS 6432 4.3 18:17:55 10° SW 18:21:37 63° SE 18:24:39 10° ENE
Cosmos 841 Rocket 3.7 18:17:34 10° NNW 18:22:48 65° ENE 18:27:24 13° SE
Okean 1 3.3 18:22:20 10° NNW 18:26:24 89° WNW 18:30:28 10° S
USA 234 3.4 18:23:26 11° ESE 18:29:41 70° SSW 18:36:14 10° WNW
Cosmos 468 Rocket 4.4 18:24:53 10° NNW 18:30:10 65° WSW 18:35:20 10° SSE
ATLAS 3B R/B 3.8 18:27:32 11° SSE 18:31:50 20° ESE 18:36:27 10° ENE
Cosmos 1867 3.5 18:27:57 10° SW 18:33:24 79° SE 18:38:54 10° NE
CARTOSAT-1 3.6 18:29:48 13° SSE 18:33:36 71° ENE 18:37:56 10° NNW
Okean 3 4.2 18:32:52 10° N 18:36:56 39° ENE 18:39:55 17° SE
Meteor 2-4 Rocket 3.8 18:31:52 10° NNW 18:37:33 68° ENE 18:42:13 15° SSE
Cosmos 1933 Rocket 3.5 18:34:16 10° S 18:38:40 73° E 18:43:09 10° NNE
SL-4 R/B 2.2 18:38:17 10° WSW 18:42:00 43° S 18:44:49 15° ESE
IGS 5A 4.1 18:39:42 10° S 18:43:45 52° W 18:47:50 10° NNW
Cosmos 1814 Rocket 4.0 18:41:06 10° NNW 18:46:20 78° ENE 18:50:23 17° SSE
CZ-2C R/B 4.3 18:42:33 10° N 18:47:16 36° WNW 18:51:59 10° SW
Meteor 1-14 Rocket 4.4 18:41:41 10° S 18:47:31 65° E 18:53:26 10° NNE
SL-16 R/B 2.5 18:41:58 10° NW 18:47:35 62° WSW 18:52:22 14° SSE
Iridium 4 Rocket 3.8 18:45:41 18° SE 18:48:12 34° E 18:51:58 10° NNE
Cosmos 2219 Rocket 3.1 18:43:08 10° NNW 18:48:32 41° NE 18:53:23 13° ESE
Cosmos 1869 Rocket 4.1 18:46:44 16° SSE 18:49:56 43° E 18:54:11 10° NNE
Cosmos 1954 Rocket 4.3 18:44:54 10° SW 18:50:13 74° WNW 18:55:35 10° NNE
USA 238 DEB 3.6 18:43:51 10° SW 18:50:29 70° SE 18:57:27 10° NE
USA 238 3.6 18:43:59 10° SW 18:50:36 70° SE 18:57:34 10° NE
Spot 2 Rocket 4.2 18:45:52 10° S 18:50:51 53° W 18:55:52 10° NNW
BREEZE-M DEB (TANK) 3.4 18:51:20 10° WSW 18:54:26 43° S 19:03:04 10° ESE
Cosmos 1741 Rocket 4.1 18:49:38 10° S 18:54:47 59° ESE 19:00:01 10° NNE
Cosmos 2322 4.1 18:49:47 10° NNW 18:55:24 55° NE 18:59:44 17° ESE
Okean 1-7 3.2 18:51:13 10° NNW 18:55:33 71° W 18:59:08 14° S
Cosmos 1703 Rocket 3.9 18:52:00 10° NNW 18:56:19 64° W 19:00:06 13° S
Cosmos 1570 Rocket 4.2 18:52:53 10° NNW 18:58:13 75° WSW 19:02:16 18° SSE
GENESIS II 4.4 18:56:58 10° NW 19:00:59 68° NE 19:03:36 20° ESE
CENTAUR R/B 2.7 18:55:19 10° SSW 19:01:18 57° SE 19:08:25 10° NE
Cosmos 2082 Rocket 2.8 18:55:44 10° SW 19:01:21 60° NW 19:06:59 10° NNE
Cosmos 1536 4.2 19:00:46 19° ESE 19:02:07 23° E 19:05:17 10° NE
Lacrosse 5 3.3 18:59:10 10° W 19:03:20 26° SW 19:06:26 15° S
Terra 1.8 19:01:13 19° SSE 19:04:42 87° ENE 19:09:30 10° NNW
Cosmos 1605 Rocket 4.3 18:58:39 10° SSW 19:04:44 68° WNW 19:10:50 10° N
Cosmos 2100 Rocket 4.0 19:00:45 14° S 19:06:04 62° E 19:12:09 10° NNE
Cosmos 2322 Rocket 2.7 19:00:49 10° NW 19:06:22 56° WSW 19:10:41 17° S
Cosmos 2208 Rocket 4.1 19:01:37 10° NNW 19:06:55 76° WSW 19:10:35 20° SSE
Cosmos 1238 Rocket 3.5 19:06:12 10° SW 19:08:59 38° WNW 19:11:54 10° N
Cosmos 2333 4.4 19:04:24 10° NNW 19:10:12 67° NE 19:14:16 20° SE
Cosmos 2173 Rocket 4.0 19:08:24 15° S 19:13:32 66° E 19:19:36 10° NNE
Cosmos 2237 4.3 19:08:24 10° NW 19:14:08 73° WSW 19:17:59 21° SSE
USA 276 4.0 19:12:35 10° WSW 19:14:44 17° SSW 19:14:46 17° SSW
SL-16 R/B 4.3 19:10:27 10° NNW 19:14:48 22° NNE 19:19:09 10° ENE
Geosat 4.5 19:12:52 18° ESE 19:16:27 55° NE 19:21:22 10° NNW
Cosmos 2360 Rocket 2.3 19:11:28 10° NW 19:17:10 76° WSW 19:20:54 22° SSE
Cosmos 1733 Rocket 4.0 19:20:26 24° SE 19:22:07 33° E 19:26:05 10° NNE
ALOS 2 4.2 19:20:18 15° ESE 19:22:51 24° ENE 19:26:22 10° N
FALCON 9 DEB 3.2 19:20:25 10° WSW 19:23:51 55° S 19:25:31 27° ESE
Cosmos 2084 Rocket 3.5 19:19:50 10° SSW 19:23:58 55° SE 19:28:13 10° ENE
Cosmos 1725 Rocket 4.4 19:20:03 21° SSE 19:24:02 48° E 19:30:05 10° NNE
Cosmos 44 4.4 19:20:49 10° WNW 19:25:13 34° WSW 19:28:10 19° S
Cosmos 1500 3.1 19:25:02 22° S 19:27:21 89° E 19:31:09 10° NNE
Cosmos 1459 Rocket 4.0 19:23:40 15° S 19:29:04 81° E 19:35:30 10° NNE
Cosmos 2016 Rocket 4.1 19:28:46 20° S 19:33:12 64° E 19:39:32 10° NNE
SAR-Lupe-2 3.7 19:29:48 10° NNE 19:33:25 74° WNW 19:35:52 19° SSW
USA 267 3.2 19:28:11 10° ENE 19:34:40 59° SSE 19:41:06 10° SW
Cosmos 2346 Rocket 4.4 19:28:48 10° NNW 19:34:54 88° W 19:38:55 23° S
MTI 4.3 19:32:02 10° NNE 19:34:58 37° E 19:35:16 36° ESE
COSMOS 2428 2.9 19:30:29 10° NNW 19:36:13 66° NE 19:39:52 23° SE
Cosmos 1356 3.6 19:37:15 39° SSE 19:38:06 51° E 19:41:28 10° NNE
Cosmos 1666 2.8 19:37:05 35° SSE 19:38:24 57° E 19:42:07 10° NNE
Cosmos 44 Rocket 3.4 19:35:40 10° NW 19:40:38 82° NE 19:43:33 26° SE
Cosmos 1242 Rocket 2.5 19:37:41 10° NNW 19:41:20 77° ENE 19:42:36 39° SSE
Cosmos 2221 Rocket 3.7 19:37:09 10° NNW 19:41:37 71° W 19:44:04 26° S
NOSS 3-2 (A) 3.7 19:35:57 10° WSW 19:41:59 76° NNW 19:49:02 10° NE
SPOT 5 3.9 19:40:39 15° SSW 19:43:43 34° W 19:47:48 10° NNW
Cosmos 2237 Rocket 3.2 19:40:57 10° NNW 19:46:19 41° NE 19:50:40 15° ESE
SL-27 R/B 3.1 19:46:33 12° SW 19:49:26 51° WNW 19:52:42 10° NNE
CRYOSAT 2 4.5 19:45:50 10° N 19:50:43 62° E 19:52:57 31° SSE
NOSS 3-2 (C) 3.5 19:45:11 10° SW 19:51:10 88° NW 19:58:11 10° NE
Cosmos 836 Rocket 4.4 19:46:57 10° NNW 19:52:13 85° ENE 19:54:50 30° SSE
Cosmos 1378 3.3 19:48:50 10° N 19:52:33 59° ENE 19:53:40 40° SE
Cosmos 1743 3.8 19:53:16 28° ESE 19:53:56 30° E 19:57:23 10° NNE
Lacrosse 4 Rocket 2.0 19:53:39 34° SE 19:54:06 35° ESE 19:57:55 10° NE
Cosmos 1378 Rocket 3.7 19:50:02 10° N 19:54:30 67° ENE 19:56:17 35° SSE
Cosmos 2333 Rocket 2.2 19:48:49 10° NW 19:54:38 87° WSW 19:57:45 29° SSE
ERBS 2.1 19:53:26 10° WNW 19:56:45 76° SSW 19:57:24 53° SE
Cosmos 2061 Rocket 3.9 19:52:30 21° S 19:56:51 87° E 20:03:06 10° NNE
Cosmos 1271 Rocket 2.8 19:55:25 10° N 19:59:11 62° ENE 20:00:19 41° SE
Cosmos 1066 Rocket 4.3 19:57:10 10° NNW 20:02:54 76° W 20:05:53 29° S
Meteor 1-11 Rocket 3.7 20:00:05 23° S 20:03:49 88° ESE 20:09:40 10° NNE
Cosmos 2233 Rocket 4.2 20:01:24 28° SSE 20:04:47 61° E 20:11:01 10° NNE
Cosmos 1802 Rocket 4.2 20:00:36 17° SSW 20:05:45 74° WNW 20:12:06 10° N
Cosmos 1544 4.2 20:13:03 28° E 20:13:19 28° E 20:16:31 10° NNE
USA 234 4.2 20:10:46 24° S 20:13:28 31° SW 20:19:12 10° WNW
Cosmos 1975 Rocket 3.9 20:10:05 10° N 20:14:23 42° ENE 20:16:03 29° ESE
Thor Agena Rocket 3.8 20:10:46 10° NNE 20:15:45 52° E 20:17:38 34° SSE
Cosmos 2344 4.3 20:07:56 10° NW 20:16:35 79° NNE 20:28:29 10° ESE
SL-4 R/B 2.6 20:17:43 10° W 20:20:23 33° SW 20:20:23 33° SW
ATLAS 3B R/B 2.5 20:14:53 10° SW 20:21:26 70° SE 20:28:06 10° NE
COSMOS 2487 2.2 20:21:58 60° S 20:22:31 82° ESE 20:25:59 10° NNE
Spot 4 4.0 20:24:31 35° S 20:26:28 68° WSW 20:31:19 10° NNW
Iridium 4 Rocket 4.5 20:25:27 16° SW 20:28:14 31° WNW 20:31:59 10° NNW
Cosmos 2227 Rocket 4.1 20:27:48 13° ESE 20:28:49 13° E 20:31:27 10° ENE
SL-16 R/B 4.4 20:27:55 10° WNW 20:30:36 14° W 20:33:16 10° SW
Cosmos 2219 Rocket 2.5 20:27:11 10° NW 20:32:45 57° WSW 20:35:05 34° S
NOSS 0 Rocket 3.9 20:27:08 10° NW 20:33:25 87° SW 20:36:37 31° SSE
Cosmos 1707 4.0 20:32:18 10° N 20:35:51 31° ENE 20:37:01 26° E
MOS 1-B Rocket 3.8 20:30:24 10° NNE 20:36:07 84° WNW 20:39:23 27° SSW
Cosmos 1025 Rocket 4.4 20:34:07 10° N 20:37:55 30° ENE 20:39:34 23° ESE
Cosmos 783 Rocket 4.4 20:32:55 10° NNW 20:38:12 86° WSW 20:40:19 38° SSE
Cosmos 1536 3.6 20:36:28 26° SW 20:38:18 46° WNW 20:42:09 10° N
Cosmos 1674 Rocket 4.4 20:35:24 10° NNW 20:39:30 41° W 20:41:02 30° SW
ATLAS 5 CENTAUR R/B 3.8 20:36:45 10° W 20:39:33 23° SW 20:39:34 23° SW
USA 238 DEB 4.4 20:35:06 10° W 20:41:46 56° NNW 20:48:46 10° ENE
USA 238 4.4 20:35:12 10° W 20:41:52 56° NNW 20:48:53 10° ENE
Terra 4.0 20:40:06 11° SW 20:43:06 17° W 20:46:17 10° NW
Cosmos 1833 4.2 20:42:36 20° SW 20:46:39 81° NW 20:52:23 10° NNE
Cosmos 1842 3.1 20:43:28 10° NNW 20:47:27 89° E 20:48:12 57° SSE
DNEPR-1 R/B 4.2 20:41:08 10° NW 20:47:31 83° NE 20:50:24 28° SE
EO 1 Del DPAF 3.1 20:44:18 10° NNE 20:48:05 81° ESE 20:48:44 59° S
Cosmos 2322 Rocket 4.5 20:47:10 10° WNW 20:49:13 12° W 20:51:16 10° WSW
Cosmos 1503 Rocket 4.2 20:48:41 38° S 20:50:31 58° ESE 20:55:48 10° NNE
Meteor 2-11 Rocket 4.4 20:48:24 33° S 20:51:22 86° E 20:57:31 10° NNE
CENTAUR R/B 3.2 20:45:37 10° WSW 20:52:04 63° NNW 20:59:45 10° NE
Sich 1 Rocket 4.3 20:53:36 34° ESE 20:54:30 38° E 20:58:36 10° NNE
Okean 2 3.4 20:50:38 10° NNW 20:54:44 71° W 20:55:39 51° SSW
Cosmos 1486 Rocket 3.9 20:53:33 31° SSW 20:56:06 85° WNW 21:01:22 10° NNE
ALOS 2 2.8 20:57:42 44° SSW 20:58:52 61° WSW 21:03:14 10° NNW
Cosmos 1733 Rocket 4.2 20:57:31 22° SW 20:59:52 38° WNW 21:04:03 10° N
Cosmos 2360 Rocket 4.1 20:56:41 10° WNW 21:00:16 17° W 21:02:39 14° SW
SL-16 R/B 2.9 20:54:41 10° NNW 21:00:16 51° NE 21:04:29 17° ESE
Meteor 1-21 4.2 20:57:20 10° NNW 21:03:10 81° WSW 21:05:34 37° S
Cosmos 2084 Rocket 4.5 20:59:28 10° W 21:03:35 47° NNW 21:07:51 10° NE
Cosmos 1975 2.7 21:08:00 58° S 21:08:45 84° ESE 21:12:50 10° NNE
Cosmos 773 Rocket 4.0 21:07:58 10° NNW 21:13:06 69° WSW 21:14:44 42° S
SL-24 DEB 4.2 21:09:09 10° N 21:13:58 86° W 21:15:29 44° S
SL-16 R/B 4.1 21:08:54 10° ESE 21:14:11 30° NE 21:19:27 10° N
Cosmos 1536 Rocket 4.0 21:12:54 10° N 21:17:10 51° ENE 21:18:30 37° SE
USA 267 3.3 21:11:24 10° ENE 21:17:58 86° N 21:24:33 10° W
COSMOS 2428 3.7 21:15:10 10° NW 21:20:11 32° WSW 21:21:52 27° SW
Cosmos 968 Rocket 3.7 21:18:04 28° SW 21:20:44 67° WNW 21:25:53 10° NNE
Cosmos 2297 Rocket 3.1 21:20:13 30° SE 21:21:40 34° ESE 21:26:43 10° NE
Cosmos 1980 3.8 21:16:45 10° NW 21:22:22 60° WSW 21:24:20 39° S
Meteor 2-9 Rocket 4.2 21:21:24 38° S 21:23:44 87° ESE 21:29:34 10° NNE
Helios 1A 2.9 21:22:59 53° S 21:23:54 78° WSW 21:28:10 10° NNW
Cosmos 1538 Rocket 3.9 21:18:54 10° NNW 21:24:06 82° WSW 21:25:57 41° SSE
Cosmos 1782 Rocket 3.5 21:23:22 49° SSW 21:24:29 80° WNW 21:28:52 10° N
Cosmos 1607 3.9 21:19:03 10° NW 21:25:31 85° SW 21:29:33 25° SE
In-Cosmos 22 4.2 21:23:18 10° NNW 21:28:56 77° ENE 21:31:14 36° SSE
Cosmos 1743 4.1 21:28:20 26° WSW 21:29:41 33° WNW 21:33:16 10° N
Cosmos 2237 Rocket 2.4 21:25:05 10° NW 21:30:38 57° WSW 21:32:28 39° S
Cosmos 1908 Rocket 4.4 21:30:25 30° WSW 21:32:03 43° WNW 21:36:15 10° N
Lacrosse 4 Rocket 2.3 21:29:55 19° WSW 21:32:43 47° NW 21:36:46 10° NE
Cosmos 2219 3.7 21:31:18 35° SSE 21:32:56 45° ESE 21:38:16 10° NE
Cosmos 2026 Rocket 4.3 21:27:11 10° N 21:33:13 59° ENE 21:36:35 27° SE
Cosmos 2333 Rocket 3.8 21:34:00 10° NW 21:38:10 21° W 21:39:44 19° WSW
Timation 2 Rocket 3.9 21:41:09 36° SSW 21:43:41 69° ESE 21:49:39 10° NE
Cosmos 1544 4.4 21:47:21 28° W 21:48:16 32° WNW 21:51:38 10° N
Meteor 1-12 Rocket 4.4 21:45:54 36° S 21:48:27 72° E 21:54:28 10° NNE
Cosmos 2112 Rocket 4.4 21:43:32 10° NNW 21:48:44 59° ENE 21:52:04 22° SE
Cosmos 158 Rocket 4.3 21:45:19 10° NNW 21:50:42 69° ENE 21:53:51 25° SE
Cosmos 1437 3.4 21:48:48 10° NNW 21:51:12 41° WNW 21:51:12 41° WNW
Cosmos 1975 Rocket 4.2 21:48:11 10° NNW 21:52:08 31° W 21:53:12 27° WSW
Cosmos 1634 Rocket 4.4 21:50:33 29° SSE 21:53:32 53° E 21:59:32 10° NNE
Cosmos 1354 Rocket 4.4 21:53:25 28° SW 21:56:13 60° WNW 22:01:31 10° NNE
Cosmos 1674 2.8 21:53:52 10° N 21:57:36 68° ENE 21:58:19 52° SE
Cosmos 1464 Rocket 4.2 21:54:49 30° SW 21:57:55 62° WNW 22:04:04 10° N
Cosmos 1300 Rocket 3.4 21:57:17 51° S 21:58:20 88° ESE 22:02:41 10° NNE
Cosmos 1943 4.4 21:55:04 10° NNW 22:00:24 41° NE 22:05:43 10° ESE
Meteor 2-5 Rocket 4.0 21:57:11 10° N 22:02:48 63° ENE 22:05:56 26° SE
CZ-2D R/B 3.9 21:59:28 10° NE 22:03:49 23° E 22:06:57 15° SE
Cosmos 1680 Rocket 3.5 21:59:05 10° NNW 22:04:22 82° ENE 22:07:04 29° SSE
Nadezhda 4 Rocket 4.4 21:58:43 10° NNW 22:04:48 51° W 22:07:27 32° SSW
MOZ.5/SAFIR/RUBIN 5/SL-8 4.4 22:03:33 24° SE 22:06:12 53° ENE 22:10:48 10° N
Helios 1B rocket 2.7 22:03:43 10° NNE 22:07:46 55° ESE 22:08:43 44° SSE
Cosmos 1428 Rocket 4.5 22:02:02 10° NNW 22:08:21 89° ENE 22:11:37 31° S
Cosmos 1766 4.4 22:10:01 29° ESE 22:11:00 34° E 22:14:32 10° NNE
Cosmos 1707 3.7 22:08:12 10° NNW 22:11:45 33° W 22:12:09 32° WSW
Cosmos 2227 Rocket 2.3 22:09:37 37° S 22:11:46 61° ESE 22:17:22 10° NE
ATLAS 3B R/B 3.3 22:05:58 10° W 22:12:26 53° NNW 22:19:04 10° NE
Meteor 2-13 Rocket 4.5 22:07:59 10° NNW 22:14:03 70° W 22:16:50 34° S
Okean 2 Rocket 3.3 22:12:54 42° SW 22:14:16 65° WNW 22:18:48 10° N
Cosmos 1777 Rocket 4.0 22:12:29 38° SSW 22:14:37 90° WNW 22:19:59 10° NNE
Cosmos 2219 Rocket 4.2 22:13:19 10° WNW 22:15:31 12° W 22:16:46 12° WSW
Cosmos 1025 Rocket 3.6 22:11:37 10° NNW 22:15:39 40° W 22:16:26 36° WSW
Okean 1 Rocket 3.5 22:14:30 37° SSE 22:15:50 53° E 22:20:07 10° NNE
Meteor 1-29 3.7 22:13:32 10° NNE 22:16:52 41° E 22:17:19 39° ESE
SJ 16-02 2.2 22:18:08 31° SE 22:19:21 38° ESE 22:23:26 10° NE
Cosmos 1733 4.3 22:20:05 30° SE 22:21:08 36° E 22:24:42 10° NNE
CZ-4 R/B 3.9 22:17:19 10° NNE 22:22:21 88° WNW 22:24:20 38° SSW
Cosmos 1092 Rocket 4.2 22:18:19 10° NNW 22:24:25 57° W 22:27:10 32° SSW
NOSS 8 (A) 4.3 22:25:25 59° WNW 22:25:43 66° NW 22:28:49 10° NE
Cosmos 1626 2.4 22:23:33 10° N 22:27:16 61° ENE 22:28:26 39° SE
UNK 4.3 22:25:25 22° SE 22:28:17 58° ENE 22:32:54 10° N
Okean 1-7 Rocket 4.4 22:25:39 10° N 22:29:56 47° ENE 22:32:39 21° SE
Cosmos 2034 Rocket 4.5 22:26:37 27° SW 22:29:57 53° WNW 22:36:11 10° N
Landsat 4 4.0 22:27:10 10° N 22:30:55 58° WNW 22:31:50 44° WSW
Cosmos 724 4.2 22:26:13 10° NW 22:32:13 81° SW 22:38:08 11° SE
Cosmos 1805 3.3 22:32:35 46° SSE 22:33:34 67° E 22:37:27 10° NNE
Cosmos 923 Rocket 4.3 22:31:50 10° NW 22:37:00 50° WSW 22:38:48 35° SSW
Cosmos 2082 3.9 22:34:49 32° S 22:37:13 57° ESE 22:42:44 10° NE
Spot 1 3.8 22:39:25 40° SSE 22:40:52 85° WSW 22:44:59 10° NNW
Resurs 1-4 Rocket 3.0 22:36:30 10° NNE 22:41:29 41° E 22:44:27 22° SSE
Cosmos 1455 Rocket 4.3 22:41:31 21° SE 22:43:49 35° E 22:47:53 10° NNE
CENTAUR R/B 4.0 22:37:14 10° WNW 22:43:58 47° N 22:51:50 10° ENE
SL-16 R/B 2.6 22:39:01 10° NW 22:44:23 43° WSW 22:46:18 32° SSW
Cosmos 2151 Rocket 4.2 22:45:26 32° WSW 22:47:00 45° WNW 22:51:16 10° N
SL-14 R/B 3.1 22:45:19 10° NNW 22:49:16 88° WSW 22:50:33 41° S
Cosmos 1892 Rocket 3.5 22:47:03 10° NNW 22:51:33 89° ENE 22:53:36 32° SSE
Cosmos 2263 Rocket 3.8 22:49:31 15° SSE 22:52:46 24° ESE 22:57:11 10° NE
Cosmos 2098 Rocket 3.9 22:49:38 10° N 22:54:49 74° ENE 22:59:48 17° SSE
SL-16 R/B 2.5 22:52:56 22° SSE 22:57:17 81° WSW 23:03:35 10° NNW
CZ-4C R/B 3.0 22:58:24 38° SSE 22:59:41 88° ENE 23:03:24 10° NNW
NOSS 3-1 (C) 3.9 22:57:24 27° S 23:00:06 45° SE 23:06:18 10° NE
Cosmos 1655 Rocket 3.9 22:54:23 10° NNW 23:00:41 83° W 23:04:51 23° S
USA 267 3.3 22:54:26 10° E 23:01:00 83° N 23:07:35 10° WNW
DELTA 2 DEB (DPAF) 4.2 23:02:23 34° S 23:04:11 61° WSW 23:08:36 10° NNW
Uosat 12 SS-18 rocket 4.3 23:02:10 25° WSW 23:04:51 68° NW 23:09:11 10° NE
Cosmos 2297 Rocket 2.5 23:02:01 24° WSW 23:05:28 61° NW 23:11:07 10° NNE
Meteor 1-15 Rocket 4.4 23:05:38 28° SW 23:08:35 60° WNW 23:14:08 10° N
Lacrosse 4 Rocket 3.9 23:09:21 10° WNW 23:12:20 18° NNW 23:15:17 10° NNE
Cosmos 2237 Rocket 4.1 23:11:26 10° WNW 23:13:30 12° W 23:14:16 12° WSW
Meteor 1-24 Rocket 3.8 23:08:48 10° NNW 23:14:06 54° W 23:16:49 27° SSW
ADEOS II 3.4 23:10:28 10° NNE 23:15:16 34° E 23:19:38 12° SSE
Cosmos 1461 3.1 23:13:38 33° SSW 23:15:36 74° SE 23:20:15 10° NE
Cosmos 2219 3.9 23:13:13 19° WSW 23:17:07 48° NW 23:22:36 10° NNE
IRAS Rocket 4.4 23:16:04 24° S 23:19:21 57° WSW 23:24:54 10° NNW
Cosmos 2279 Rocket 4.1 23:20:54 25° SSW 23:24:40 66° WNW 23:30:53 10° N
SL-24 R/B 4.5 23:21:41 22° S 23:24:58 85° W 23:30:25 10° N
Cosmos 1603 3.7 23:19:18 10° NW 23:25:00 65° WSW 23:30:32 10° SSE
BREEZE-M TANK 4.3 23:25:51 18° SSE 23:25:51 18° SSE 23:28:47 10° SE
GEOS 3 Rocket 4.3 23:22:29 10° NE 23:27:42 47° SE 23:30:53 22° S
Cosmos 1937 Rocket 3.7 23:24:35 24° S 23:27:46 65° ESE 23:33:03 10° NNE
Cosmos 1726 3.3 23:27:44 16° SSE 23:30:10 36° E 23:33:33 10° NNE
Cosmos 1544 Rocket 3.8 23:28:26 22° S 23:31:13 66° E 23:35:40 10° NNE
Cosmos 990 Rocket 3.9 23:29:02 26° SSW 23:32:02 88° WNW 23:37:15 10° NNE
CZ-4B R/B 3.9 23:29:39 10° NNE 23:34:20 53° ESE 23:37:48 17° S
USA 229 DEB 3.8 23:32:46 22° SSW 23:37:07 63° SE 23:44:01 10° NE
USA 229 3.8 23:32:52 22° SSW 23:37:11 63° SE 23:44:04 10° NE
Cosmos 1758 3.4 23:36:38 24° S 23:38:58 76° E 23:42:58 10° NNE
Cosmos 1340 Rocket 2.8 23:37:29 26° S 23:39:39 81° ESE 23:43:37 10° NNE
COBE Rocket 3.7 23:36:41 19° S 23:40:02 71° WSW 23:44:43 10° NNW
Helios 1B rocket 4.1 23:39:29 10° N 23:42:46 24° WNW 23:45:01 15° W
Cosmos 1898 Rocket 3.5 23:39:48 24° SSW 23:43:04 80° WNW 23:48:18 10° NNE
CZ-2D R/B 2.2 23:38:58 10° NNE 23:44:29 78° WNW 23:48:16 21° SSW
Cosmos 1943 3.3 23:39:12 10° NW 23:44:41 56° WSW 23:50:10 10° SSE
ARIANE 5 R/B 4.0 23:40:24 10° NNE 23:45:09 34° E 23:49:53 10° SSE
Meteor 2-14 Rocket 4.4 23:39:52 10° NNW 23:45:59 89° W 23:52:04 10° S
NOSS 2-3 (C) 4.4 23:44:18 22° SSW 23:46:55 47° SE 23:52:02 10° NE
Cosmos 1602 Rocket 3.5 23:42:31 10° NNW 23:46:55 89° E 23:50:50 13° S
Cosmos 1766 4.5 23:45:23 21° WSW 23:47:07 29° WNW 23:50:34 10° N
Cosmos 1703 4.1 23:43:38 10° N 23:47:33 52° ENE 23:51:26 10° SSE
SL-08 R/B 3.6 23:43:23 10° SSE 23:48:20 73° ENE 23:53:16 10° NNW
NOSS 3-1 (A) 3.7 23:44:33 21° SSW 23:48:22 56° SE 23:54:51 10° NE
Cosmos 1900 4.5 23:43:17 10° NW 23:48:27 85° NE 23:53:37 10° SE
Meteor 1-22 Rocket 4.5 23:50:36 21° SW 23:54:00 52° WNW 23:59:19 10° N
Cosmos 1953 2.7 23:52:42 16° S 23:55:51 62° E 23:59:53 10° NNE
